CW7015 Weather Reports


time (UTC)temp
C
wind
direction
speed
KPH
gust
KPH
rain 1hr
cm
rain 24hr
cm
rain mn
cm
humidity
%
barometer
mb
20260906222128 33 164 3.2 14.5 0.00 0.00 0.00 31 1000.3
20260906222037 33 128 1.6 11.3 0.00 0.00 0.00 31 1015.1
20260906221545 33 132 4.8 9.7 0.00 0.00 0.00 30 1015.3
20260906221504 33 192 3.2 9.7 0.00 0.00 0.00 30 1000.4
20260906221113 33 107 1.6 8.0 0.00 0.00 0.00 31 1000.4
20260906221041 33 107 3.2 8.0 0.00 0.00 0.00 31 1015.3
20260906220537 34 122 4.8 14.5 0.00 0.00 0.00 30 1015.2
20260906220509 33 80 3.2 14.5 0.00 0.00 0.00 30 1000.4
20260906220112 33 119 1.6 14.5 0.00 0.00 0.00 31 1000.4
20260906220031 34 119 3.2 14.5 0.00 0.00 0.00 31 1015.3
20260906215547 33 103 1.6 11.3 0.00 0.00 0.00 31 1000.5
20260906215526 34 167 3.2 11.3 0.00 0.00 0.00 30 1015.3
20260906215114 33 106 3.2 11.3 0.00 0.00 0.00 30 1000.6
20260906215049 34 55 4.8 11.3 0.00 0.00 0.00 30 1015.4
20260906214622 34 77 3.2 11.3 0.00 0.00 0.00 30 1000.6
20260906214550 34 34 3.2 11.3 0.00 0.00 0.00 30 1015.5
20260906214044 34 40 1.6 12.9 0.00 0.00 0.00 30 1015.7
20260906214016 34 40 1.6 12.9 0.00 0.00 0.00 30 1000.8
20260906213623 34 111 1.6 11.3 0.00 0.00 0.00 30 1000.8
20260906213538 35 80 3.2 8.0 0.00 0.00 0.00 29 1015.6
20260906213151 34 123 3.2 8.0 0.00 0.00 0.00 30 1000.8
20260906213106 35 19 3.2 8.0 0.00 0.00 0.00 29 1015.7
20260906212602 34 95 1.6 6.4 0.00 0.00 0.00 30 1000.9
20260906212541 34 115 1.6 4.8 0.00 0.00 0.00 30 1015.8
20260906212130 33 38 1.6 8.0 0.00 0.00 0.00 30 1001.0
20260906212034 34 66 3.2 8.0 0.00 0.00 0.00 30 1015.9
20260906211554 33 59 3.2 8.0 0.00 0.00 0.00 31 1001.1
20260906211529 33 66 4.8 8.0 0.00 0.00 0.00 30 1015.9
20260906211127 33 33 3.2 12.9 0.00 0.00 0.00 30 1001.2
20260906211052 33 33 3.2 12.9 0.00 0.00 0.00 31 1015.9
20260906210546 33 59 4.8 12.9 0.00 0.00 0.00 31 1016.0
20260906210519 33 59 4.8 12.9 0.00 0.00 0.00 31 1001.3
20260906210139 33 39 1.6 12.9 0.00 0.00 0.00 31 1001.3
20260906210040 33 39 3.2 12.9 0.00 0.00 0.00 31 1016.1
20260906205552 33 32 4.8 9.7 0.00 0.00 0.00 30 1001.5
20260906205533 33 40 4.8 9.7 0.00 0.00 0.00 30 1016.2
20260906205124 33 57 1.6 8.0 0.00 0.00 0.00 31 1001.6
20260906205101 33 80 1.6 8.0 0.00 0.00 0.00 32 1016.4
20260906204631 32 117 1.6 14.5 0.00 0.00 0.00 31 1001.7
20260906204536 33 170 1.6 14.5 0.00 0.00 0.00 31 1016.4
20260906204106 32 39 3.2 14.5 0.00 0.00 0.00 31 1002.0
20260906204030 32 65 4.8 14.5 0.00 0.00 0.00 31 1016.7
20260906203636 32 34 3.2 9.7 0.00 0.00 0.00 32 1002.0
20260906203554 33 78 4.8 9.7 0.00 0.00 0.00 32 1016.7
20260906203049 32 42 3.2 9.7 0.00 0.00 0.00 32 1002.0
20260906203026 32 42 3.2 9.7 0.00 0.00 0.00 32 1016.7
20260906202618 32 34 1.6 6.4 0.00 0.00 0.00 32 1002.0
20260906202549 32 35 1.6 6.4 0.00 0.00 0.00 33 1016.7
20260906202132 32 308 3.2 6.4 0.00 0.00 0.00 32 1002.1
20260906202054 32 36 3.2 6.4 0.00 0.00 0.00 33 1016.8
20260906201548 32 54 1.6 8.0 0.00 0.00 0.00 33 1016.8
20260906201523 32 54 1.6 8.0 0.00 0.00 0.00 33 1002.1
20260906201126 31 22 3.2 8.0 0.00 0.00 0.00 35 1002.2
20260906201038 32 46 3.2 8.0 0.00 0.00 0.00 34 1016.9
20260906200602 31 67 3.2 8.0 0.00 0.00 0.00 34 1002.2
20260906200532 31 67 4.8 8.0 0.00 0.00 0.00 34 1017.0
20260906200124 31 28 1.6 6.4 0.00 0.00 0.00 34 1002.4
20260906200028 31 53 1.6 6.4 0.00 0.00 0.00 34 1017.2
20260906195653 31 82 1.6 14.5 0.00 0.00 0.00 35 1002.4
20260906195531 31 62 3.2 14.5 0.00 0.00 0.00 34 1017.2
20260906195054 31 19 6.4 14.5 0.00 0.00 0.00 34 1017.2
20260906195027 31 18 6.4 14.5 0.00 0.00 0.00 34 1002.5
20260906194631 31 79 1.6 16.1 0.00 0.00 0.00 35 1002.6
20260906194551 31 46 3.2 16.1 0.00 0.00 0.00 35 1017.3
20260906194103 31 41 8.0 16.1 0.00 0.00 0.00 34 1002.7
20260906194047 31 31 8.0 16.1 0.00 0.00 0.00 34 1017.4
20260906193630 31 66 1.6 8.0 0.00 0.00 0.00 33 1002.8
20260906193545 31 208 3.2 8.0 0.00 0.00 0.00 33 1017.5
20260906193115 31 77 1.6 6.4 0.00 0.00 0.00 35 1017.6
20260906193004 31 63 1.6 6.4 0.00 0.00 0.00 36 1002.9
20260906192610 30 193 1.6 6.4 0.00 0.00 0.00 35 1002.9
20260906192549 31 184 3.2 6.4 0.00 0.00 0.00 36 1017.7
20260906192039 30 26 1.6 12.9 0.00 0.00 0.00 36 1017.8
20260906192004 30 76 1.6 12.9 0.00 0.00 0.00 36 1003.1
20260906191608 30 19 4.8 9.7 0.00 0.00 0.00 37 1003.2
20260906191535 30 333 6.4 9.7 0.00 0.00 0.00 37 1017.9
20260906191029 30 34 1.6 8.0 0.00 0.00 0.00 38 1018.0
20260906191005 30 34 1.6 8.0 0.00 0.00 0.00 38 1003.3
20260906190610 30 36 3.2 8.0 0.00 0.00 0.00 37 1003.3
20260906190534 30 69 4.8 8.0 0.00 0.00 0.00 38 1018.0
20260906190140 30 186 1.6 4.8 0.00 0.00 0.00 37 1003.3
20260906190057 30 138 1.6 4.8 0.00 0.00 0.00 37 1018.1
20260906185649 30 36 1.6 9.7 0.00 0.00 0.00 38 1003.4
20260906185538 30 71 1.6 9.7 0.00 0.00 0.00 39 1018.2
20260906185058 29 29 3.2 9.7 0.00 0.00 0.00 40 1003.5
20260906185031 30 24 4.8 9.7 0.00 0.00 0.00 40 1018.3
20260906184630 29 72 1.6 9.7 0.00 0.00 0.00 39 1003.5
20260906184528 29 312 3.2 9.7 0.00 0.00 0.00 40 1018.4
20260906184157 29 17 4.8 9.7 0.00 0.00 0.00 39 1003.6
20260906184054 30 31 6.4 9.7 0.00 0.00 0.00 39 1018.4
20260906183612 29 346 1.6 4.8 0.00 0.00 0.00 40 1003.7
20260906183543 30 25 3.2 4.8 0.00 0.00 0.00 39 1018.5
20260906183135 29 33 1.6 8.0 0.00 0.00 0.00 39 1003.9
20260906183039 29 130 1.6 8.0 0.00 0.00 0.00 39 1018.7
20260906182608 28 74 0.0 4.8 0.00 0.00 0.00 40 1004.0
20260906182534 29 74 1.6 4.8 0.00 0.00 0.00 40 1018.8
20260906182132 28 25 1.6 6.4 0.00 0.00 0.00 40 1004.1
20260906182040 29 64 1.6 6.4 0.00 0.00 0.00 41 1018.9
20260906181603 28 30 0.0 6.4 0.00 0.00 0.00 42 1004.3
20260906181537 29 30 1.6 6.4 0.00 0.00 0.00 42 1019.0
20260906181124 28 29 1.6 6.4 0.00 0.00 0.00 41 1004.4
20260906181032 29 190 3.2 6.4 0.00 0.00 0.00 41 1019.1
20260906180558 28 186 0.0 6.4 0.00 0.00 0.00 42 1004.3
20260906180528 28 185 1.6 6.4 0.00 0.00 0.00 42 1019.2
20260906180128 28 44 0.0 8.0 0.00 0.00 0.00 43 1004.5
20260906180053 28 44 1.6 8.0 0.00 0.00 0.00 43 1019.3
20260906175547 28 38 4.8 8.0 0.00 0.00 0.00 42 1019.4
20260906175522 28 39 3.2 8.0 0.00 0.00 0.00 42 1004.6
20260906175129 28 44 1.6 6.4 0.00 0.00 0.00 43 1004.6
20260906175042 28 34 3.2 6.4 0.00 0.00 0.00 43 1019.4
20260906174612 28 301 4.8 6.4 0.00 0.00 0.00 43 1019.5
20260906174507 28 29 1.6 4.8 0.00 0.00 0.00 44 1004.7
20260906174117 28 136 1.6 4.8 0.00 0.00 0.00 43 1004.8
20260906174041 28 136 1.6 4.8 0.00 0.00 0.00 43 1019.6
20260906173537 28 43 1.6 4.8 0.00 0.00 0.00 45 1019.7
20260906173508 27 36 1.6 4.8 0.00 0.00 0.00 45 1004.9
20260906173123 27 114 0.0 4.8 0.00 0.00 0.00 45 1005.0
20260906173033 27 114 0.0 4.8 0.00 0.00 0.00 45 1019.9
20260906172529 28 109 1.6 4.8 0.00 0.00 0.00 45 1019.9
20260906172505 27 94 1.6 4.8 0.00 0.00 0.00 45 1005.1
20260906172114 27 75 1.6 4.8 0.00 0.00 0.00 46 1005.2
20260906172054 27 42 1.6 4.8 0.00 0.00 0.00 47 1020.1
20260906171620 27 148 0.0 4.8 0.00 0.00 0.00 47 1005.4
20260906171600 27 190 0.0 4.8 0.00 0.00 0.00 47 1020.2
20260906171141 26 269 0.0 3.2 0.00 0.00 0.00 47 1005.4
20260906171106 27 61 1.6 3.2 0.00 0.00 0.00 47 1020.3
20260906170541 26 94 1.6 4.8 0.00 0.00 0.00 49 1020.3
20260906170512 26 97 1.6 4.8 0.00 0.00 0.00 49 1005.5
20260906170114 26 112 1.6 4.8 0.00 0.00 0.00 49 1005.6
20260906170032 26 112 1.6 4.8 0.00 0.00 0.00 49 1020.4
20260906165644 26 104 0.0 8.0 0.00 0.00 0.00 51 1005.6
20260906165552 26 104 1.6 8.0 0.00 0.00 0.00 51 1020.5
20260906165059 26 34 3.2 8.0 0.00 0.00 0.00 50 1005.8
20260906165026 26 32 3.2 8.0 0.00 0.00 0.00 51 1020.5
20260906164633 26 39 0.0 6.4 0.00 0.00 0.00 52 1005.7
20260906164551 26 78 1.6 6.4 0.00 0.00 0.00 52 1020.6
20260906164103 25 161 1.6 6.4 0.00 0.00 0.00 52 1005.8
20260906164046 25 161 1.6 6.4 0.00 0.00 0.00 52 1020.6
20260906163628 25 211 3.2 6.4 0.00 0.00 0.00 53 1005.8
20260906163541 25 203 3.2 6.4 0.00 0.00 0.00 53 1020.6
20260906163058 25 168 1.6 6.4 0.00 0.00 0.00 51 1005.8
20260906163035 25 159 1.6 6.4 0.00 0.00 0.00 51 1020.5
20260906162635 25 169 1.6 6.4 0.00 0.00 0.00 53 1005.7
20260906162557 25 209 1.6 6.4 0.00 0.00 0.00 53 1020.6
20260906162047 25 29 0.0 4.8 0.00 0.00 0.00 55 1005.7
20260906162030 25 135 0.0 4.8 0.00 0.00 0.00 55 1020.5
20260906161619 24 134 1.6 4.8 0.00 0.00 0.00 56 1005.7
20260906161554 25 130 3.2 4.8 0.00 0.00 0.00 56 1020.5
20260906161142 24 105 0.0 3.2 0.00 0.00 0.00 57 1005.7
20260906161048 24 105 1.6 3.2 0.00 0.00 0.00 58 1020.5
20260906160651 24 105 0.0 3.2 0.00 0.00 0.00 59 1005.7
20260906160547 24 104 1.6 3.2 0.00 0.00 0.00 59 1020.5
20260906160107 23 94 1.6 4.8 0.00 0.00 0.00 59 1005.8
20260906160050 23 94 1.6 4.8 0.00 0.00 0.00 59 1020.6
20260906155631 23 130 1.6 4.8 0.00 0.00 0.00 61 1005.7
20260906155546 23 168 1.6 4.8 0.00 0.00 0.00 61 1020.6
20260906155059 23 130 0.0 3.2 0.00 0.00 0.00 63 1005.7
20260906155043 23 130 0.0 3.2 0.00 0.00 0.00 63 1020.4
20260906154626 22 130 0.0 3.2 0.00 0.00 0.00 64 1005.7
20260906154539 22 5 1.6 3.2 0.00 0.00 0.00 64 1020.5
20260906154105 22 223 1.6 3.2 0.00 0.00 0.00 64 1020.6
20260906154002 22 204 0.0 3.2 0.00 0.00 0.00 65 1005.8
20260906153615 22 144 1.6 4.8 0.00 0.00 0.00 65 1005.9
20260906153538 22 360 1.6 4.8 0.00 0.00 0.00 65 1020.7
20260906153034 22 360 1.6 4.8 0.00 0.00 0.00 65 1020.6
20260906153008 22 360 1.6 4.8 0.00 0.00 0.00 65 1005.8
20260906152605 22 360 1.6 4.8 0.00 0.00 0.00 65 1006.0
20260906152528 22 360 1.6 4.8 0.00 0.00 0.00 66 1020.7
20260906152141 21 360 0.0 3.2 0.00 0.00 0.00 65 1006.0
20260906152052 22 360 0.0 3.2 0.00 0.00 0.00 66 1020.8
20260906151549 22 355 0.0 6.4 0.00 0.00 0.00 66 1020.8
20260906151522 21 355 0.0 6.4 0.00 0.00 0.00 66 1006.0
20260906151126 21 350 1.6 6.4 0.00 0.00 0.00 67 1006.1
20260906151045 22 360 1.6 4.8 0.00 0.00 0.00 66 1020.8
20260906150558 21 239 1.6 3.2 0.00 0.00 0.00 67 1006.1
20260906150542 21 179 1.6 3.2 0.00 0.00 0.00 67 1020.8
20260906150124 21 130 1.6 3.2 0.00 0.00 0.00 68 1006.1
20260906150038 21 132 1.6 3.2 0.00 0.00 0.00 68 1020.8
20260906145557 21 82 0.0 3.2 0.00 0.00 0.00 69 1006.1
20260906145534 21 96 0.0 3.2 0.00 0.00 0.00 69 1020.8
20260906145120 20 291 0.0 4.8 0.00 0.00 0.00 69 1006.1
20260906145028 21 257 0.0 4.8 0.00 0.00 0.00 69 1020.7
20260906144549 20 212 1.6 4.8 0.00 0.00 0.00 70 1020.7
20260906144521 20 212 0.0 3.2 0.00 0.00 0.00 70 1006.0
20260906144123 20 53 0.0 3.2 0.00 0.00 0.00 71 1006.0
20260906144042 20 76 0.0 1.6 0.00 0.00 0.00 72 1020.7
20260906143537 20 346 0.0 3.2 0.00 0.00 0.00 73 1020.7
20260906143516 20 346 0.0 3.2 0.00 0.00 0.00 73 1006.0
20260906143119 19 346 0.0 3.2 0.00 0.00 0.00 73 1006.0
20260906143033 20 346 1.6 3.2 0.00 0.00 0.00 73 1020.7
20260906142550 19 127 0.0 3.2 0.00 0.00 0.00 74 1006.0
20260906142526 19 127 0.0 3.2 0.00 0.00 0.00 74 1020.7
20260906142120 18 121 0.0 3.2 0.00 0.00 0.00 75 1006.2
20260906142029 19 117 0.0 3.2 0.00 0.00 0.00 76 1020.8
20260906141633 18 124 0.0 3.2 0.00 0.00 0.00 77 1006.1
20260906141553 18 136 1.6 3.2 0.00 0.00 0.00 77 1020.8
20260906141108 18 139 0.0 3.2 0.00 0.00 0.00 78 1006.1
20260906141051 18 136 1.6 3.2 0.00 0.00 0.00 78 1020.8
20260906140634 18 360 0.0 3.2 0.00 0.00 0.00 79 1006.0
20260906140550 18 360 0.0 1.6 0.00 0.00 0.00 80 1020.8
20260906140118 17 360 0.0 1.6 0.00 0.00 0.00 81 1006.0
20260906140046 18 360 0.0 1.6 0.00 0.00 0.00 81 1020.7
20260906135631 17 360 0.0 1.6 0.00 0.00 0.00 82 1006.1
20260906135542 17 360 0.0 1.6 0.00 0.00 0.00 82 1020.7
20260906135109 17 17 0.0 1.6 0.00 0.00 0.00 83 1020.8
20260906135012 17 17 0.0 1.6 0.00 0.00 0.00 83 1006.1
20260906134635 17 13 0.0 1.6 0.00 0.00 0.00 83 1006.0
20260906134543 17 14 0.0 1.6 0.00 0.00 0.00 83 1020.7
20260906134152 17 13 0.0 1.6 0.00 0.00 0.00 83 1006.0
20260906134109 17 13 0.0 1.6 0.00 0.00 0.00 84 1020.7
20260906133609 17 13 0.0 1.6 0.00 0.00 0.00 84 1006.0
20260906133544 17 13 0.0 1.6 0.00 0.00 0.00 84 1020.7
20260906133135 16 13 0.0 1.6 0.00 0.00 0.00 84 1006.0
20260906133040 17 13 0.0 1.6 0.00 0.00 0.00 84 1020.7
20260906132604 16 13 0.0 0.0 0.00 0.00 0.00 84 1005.9
20260906132534 17 13 0.0 0.0 0.00 0.00 0.00 84 1020.6
20260906132136 16 13 0.0 0.0 0.00 0.00 0.00 84 1005.8
20260906132037 16 13 0.0 0.0 0.00 0.00 0.00 84 1020.5
20260906131550 16 13 0.0 0.0 0.00 0.00 0.00 84 1005.8
20260906131533 16 13 0.0 0.0 0.00 0.00 0.00 84 1020.5
20260906131118 16 13 0.0 0.0 0.00 0.00 0.00 84 1005.7
20260906131059 16 13 0.0 0.0 0.00 0.00 0.00 84 1020.4
20260906130629 16 13 0.0 0.0 0.00 0.00 0.00 84 1005.7
20260906130533 16 13 0.0 0.0 0.00 0.00 0.00 84 1020.4
20260906130141 16 13 0.0 0.0 0.00 0.00 0.00 84 1005.7
20260906130028 16 13 0.0 0.0 0.00 0.00 0.00 84 1020.3
20260906125630 16 13 0.0 0.0 0.00 0.00 0.00 84 1005.6
20260906125538 16 13 0.0 0.0 0.00 0.00 0.00 84 1020.2
20260906125046 16 13 0.0 0.0 0.00 0.00 0.00 83 1005.4
20260906125030 16 13 0.0 0.0 0.00 0.00 0.00 83 1020.0
20260906124618 16 13 0.0 0.0 0.00 0.00 0.00 82 1005.4
20260906124554 16 13 0.0 0.0 0.00 0.00 0.00 82 1020.1
20260906124120 16 13 0.0 0.0 0.00 0.00 0.00 82 1005.5
20260906124026 16 13 0.0 0.0 0.00 0.00 0.00 82 1020.2
20260906123552 16 13 0.0 0.0 0.00 0.00 0.00 81 1020.2
20260906123502 16 13 0.0 0.0 0.00 0.00 0.00 81 1005.6
20260906123111 16 13 0.0 0.0 0.00 0.00 0.00 81 1005.6
20260906123034 16 13 0.0 0.0 0.00 0.00 0.00 81 1020.1
20260906122621 16 13 0.0 0.0 0.00 0.00 0.00 81 1005.6
20260906122556 16 13 0.0 0.0 0.00 0.00 0.00 81 1020.2
20260906122136 16 13 0.0 0.0 0.00 0.00 0.00 80 1005.6
20260906122105 16 13 0.0 0.0 0.00 0.00 0.00 80 1020.2
20260906121540 16 13 0.0 0.0 0.00 0.00 0.00 80 1020.1
20260906121512 16 13 0.0 0.0 0.00 0.00 0.00 79 1005.6
20260906121120 16 13 0.0 0.0 0.00 0.00 0.00 79 1005.6
20260906121057 16 13 0.0 0.0 0.00 0.00 0.00 79 1020.2
20260906120630 16 13 0.0 0.0 0.00 0.00 0.00 77 1005.6
20260906120538 16 13 0.0 0.0 0.00 0.00 0.00 77 1020.2
20260906120033 16 13 0.0 0.0 0.00 0.00 0.00 77 1020.2
20260906120009 16 13 0.0 0.0 0.00 0.00 0.00 77 1005.7
20260906115615 16 13 0.0 0.0 0.00 0.00 0.00 76 1005.6
20260906115557 16 13 0.0 0.0 0.00 0.00 0.00 76 1020.1
20260906115119 16 13 0.0 0.0 0.00 0.00 0.00 76 1005.6
20260906115031 17 13 0.0 0.0 0.00 0.00 0.00 76 1020.2
20260906114649 16 13 0.0 0.0 0.00 0.00 0.00 76 1005.7
20260906114536 17 13 0.0 0.0 0.00 0.00 0.00 75 1020.2
20260906114101 16 13 0.0 0.0 0.00 0.00 0.00 75 1005.6
20260906114030 17 13 0.0 0.0 0.00 0.00 0.00 74 1020.1
20260906113629 16 13 0.0 0.0 0.00 0.00 0.00 74 1005.7
20260906113553 17 13 0.0 0.0 0.00 0.00 0.00 74 1020.3
20260906113108 17 13 0.0 0.0 0.00 0.00 0.00 73 1005.6
20260906113044 17 13 0.0 0.0 0.00 0.00 0.00 73 1020.1
20260906112626 17 13 0.0 0.0 0.00 0.00 0.00 73 1005.5
20260906112540 17 13 0.0 0.0 0.00 0.00 0.00 73 1020.1
20260906112055 17 13 0.0 0.0 0.00 0.00 0.00 72 1005.5
20260906112034 17 13 0.0 0.0 0.00 0.00 0.00 72 1020.1
20260906111628 17 13 0.0 0.0 0.00 0.00 0.00 72 1005.5
20260906111527 17 13 0.0 0.0 0.00 0.00 0.00 72 1020.1
20260906111031 17 13 0.0 0.0 0.00 0.00 0.00 71 1020.0
20260906111007 17 13 0.0 0.0 0.00 0.00 0.00 71 1005.5
20260906110608 17 13 0.0 0.0 0.00 0.00 0.00 70 1005.5
20260906110527 17 13 0.0 0.0 0.00 0.00 0.00 70 1020.1
20260906110033 17 13 0.0 0.0 0.00 0.00 0.00 70 1019.9
20260906110001 17 13 0.0 0.0 0.00 0.00 0.00 69 1005.3
20260906105614 17 13 0.0 0.0 0.00 0.00 0.00 69 1005.2
20260906105602 18 13 0.0 0.0 0.00 0.00 0.00 69 1019.7
20260906105126 17 13 0.0 0.0 0.00 0.00 0.00 68 1005.1
20260906105048 18 13 0.0 0.0 0.00 0.00 0.00 68 1019.7
20260906104636 18 13 0.0 0.0 0.00 0.00 0.00 67 1005.1
20260906104543 18 13 0.0 0.0 0.00 0.00 0.00 67 1019.6
20260906104105 18 13 0.0 0.0 0.00 0.00 0.00 66 1005.0
20260906104035 18 13 0.0 0.0 0.00 0.00 0.00 65 1019.6
20260906103529 18 13 0.0 0.0 0.00 0.00 0.00 65 1019.5
20260906103502 18 13 0.0 1.6 0.00 0.00 0.00 65 1004.9
20260906103114 18 13 0.0 1.6 0.00 0.00 0.00 64 1004.9
20260906103052 18 13 0.0 1.6 0.00 0.00 0.00 64 1019.6
20260906102639 18 13 0.0 3.2 0.00 0.00 0.00 63 1004.9
20260906102547 18 13 0.0 3.2 0.00 0.00 0.00 63 1019.5
20260906102152 18 24 0.0 4.8 0.00 0.00 0.00 63 1004.8
20260906102031 18 24 1.6 4.8 0.00 0.00 0.00 63 1019.4
20260906101611 18 24 0.0 4.8 0.00 0.00 0.00 63 1004.7
20260906101559 18 24 1.6 4.8 0.00 0.00 0.00 63 1019.3
20260906101123 18 355 1.6 4.8 0.00 0.00 0.00 63 1004.8
20260906101044 18 241 1.6 4.8 0.00 0.00 0.00 63 1019.3
20260906100601 18 211 0.0 3.2 0.00 0.00 0.00 64 1004.9
20260906100542 18 211 0.0 1.6 0.00 0.00 0.00 64 1019.5
20260906100123 18 211 0.0 0.0 0.00 0.00 0.00 64 1004.9
20260906100037 18 211 0.0 0.0 0.00 0.00 0.00 64 1019.5
20260906095555 18 211 0.0 0.0 0.00 0.00 0.00 64 1004.9
20260906095531 18 211 0.0 0.0 0.00 0.00 0.00 64 1019.5
20260906095127 18 211 0.0 1.6 0.00 0.00 0.00 64 1004.9
20260906095029 18 211 0.0 1.6 0.00 0.00 0.00 64 1019.5
20260906094553 18 211 0.0 1.6 0.00 0.00 0.00 64 1019.5
20260906094504 18 211 0.0 1.6 0.00 0.00 0.00 64 1004.9
20260906094111 18 211 0.0 0.0 0.00 0.00 0.00 63 1004.9
20260906094039 18 211 0.0 0.0 0.00 0.00 0.00 63 1019.5
20260906093536 18 211 0.0 3.2 0.00 0.00 0.00 63 1019.5
20260906093508 18 211 0.0 3.2 0.00 0.00 0.00 63 1004.9
20260906093114 18 211 0.0 3.2 0.00 0.00 0.00 63 1004.9
20260906093042 18 211 0.0 3.2 0.00 0.00 0.00 63 1019.5
20260906092651 18 211 0.0 3.2 0.00 0.00 0.00 63 1004.9
20260906092613 18 211 0.0 1.6 0.00 0.00 0.00 63 1019.5
20260906092105 18 211 0.0 0.0 0.00 0.00 0.00 63 1004.8
20260906092048 18 211 0.0 0.0 0.00 0.00 0.00 63 1019.4
20260906091635 18 211 0.0 0.0 0.00 0.00 0.00 63 1004.9
20260906091543 19 211 0.0 0.0 0.00 0.00 0.00 63 1019.5
20260906091107 18 211 0.0 0.0 0.00 0.00 0.00 62 1004.9
20260906091039 19 211 0.0 0.0 0.00 0.00 0.00 62 1019.4
20260906090535 19 211 0.0 0.0 0.00 0.00 0.00 62 1019.4
20260906090504 18 211 0.0 0.0 0.00 0.00 0.00 62 1004.8
20260906090103 18 211 0.0 0.0 0.00 0.00 0.00 62 1004.8
20260906090026 19 211 0.0 0.0 0.00 0.00 0.00 62 1019.3
20260906085635 19 211 0.0 0.0 0.00 0.00 0.00 62 1004.8
20260906085550 19 211 0.0 0.0 0.00 0.00 0.00 62 1019.3
20260906085104 19 211 0.0 0.0 0.00 0.00 0.00 61 1004.7
20260906085046 19 211 0.0 0.0 0.00 0.00 0.00 61 1019.3
20260906084632 19 211 0.0 3.2 0.00 0.00 0.00 61 1004.6
20260906084541 20 211 0.0 3.2 0.00 0.00 0.00 61 1019.2
20260906084105 19 211 1.6 3.2 0.00 0.00 0.00 61 1004.5
20260906084037 20 211 1.6 3.2 0.00 0.00 0.00 61 1019.1
20260906083631 19 211 0.0 3.2 0.00 0.00 0.00 60 1004.5
20260906083533 20 211 0.0 3.2 0.00 0.00 0.00 61 1019.1
20260906083104 20 211 1.6 3.2 0.00 0.00 0.00 60 1004.5
20260906083027 20 211 1.6 3.2 0.00 0.00 0.00 60 1019.1
20260906082552 20 211 0.0 0.0 0.00 0.00 0.00 59 1019.2
20260906082501 20 211 0.0 0.0 0.00 0.00 0.00 59 1004.6
20260906082111 20 211 0.0 0.0 0.00 0.00 0.00 59 1004.7
20260906082049 20 211 0.0 0.0 0.00 0.00 0.00 59 1019.3
20260906081620 20 211 0.0 0.0 0.00 0.00 0.00 58 1004.7
20260906081552 20 211 0.0 0.0 0.00 0.00 0.00 59 1019.2
20260906081044 20 211 0.0 0.0 0.00 0.00 0.00 58 1019.3
20260906081020 20 211 0.0 0.0 0.00 0.00 0.00 58 1004.8
20260906080618 20 211 0.0 1.6 0.00 0.00 0.00 58 1004.8
20260906080540 20 211 0.0 1.6 0.00 0.00 0.00 58 1019.4
20260906080056 20 211 0.0 1.6 0.00 0.00 0.00 57 1004.8
20260906080036 20 211 0.0 1.6 0.00 0.00 0.00 57 1019.4
20260906075624 20 211 0.0 1.6 0.00 0.00 0.00 57 1004.8
20260906075541 20 211 0.0 1.6 0.00 0.00 0.00 57 1019.3
20260906075059 20 211 0.0 0.0 0.00 0.00 0.00 56 1004.7
20260906075038 20 211 0.0 0.0 0.00 0.00 0.00 56 1019.2
20260906074621 20 211 0.0 1.6 0.00 0.00 0.00 56 1004.5
20260906074533 20 211 0.0 1.6 0.00 0.00 0.00 56 1019.0
20260906074038 21 211 0.0 1.6 0.00 0.00 0.00 56 1019.1
20260906074007 20 211 0.0 1.6 0.00 0.00 0.00 56 1004.6
20260906073608 21 211 0.0 0.0 0.00 0.00 0.00 55 1019.0
20260906073523 20 211 0.0 0.0 0.00 0.00 0.00 55 1004.5
20260906073124 20 211 0.0 1.6 0.00 0.00 0.00 55 1004.4
20260906073043 21 211 0.0 1.6 0.00 0.00 0.00 55 1018.9
20260906072559 20 211 0.0 3.2 0.00 0.00 0.00 54 1004.5
20260906072538 21 211 0.0 3.2 0.00 0.00 0.00 54 1018.9
20260906072124 21 236 0.0 3.2 0.00 0.00 0.00 54 1004.5
20260906072033 21 250 0.0 3.2 0.00 0.00 0.00 54 1019.0
20260906071553 21 192 1.6 3.2 0.00 0.00 0.00 53 1018.9
20260906071524 21 192 0.0 3.2 0.00 0.00 0.00 53 1004.4
20260906071131 21 188 0.0 1.6 0.00 0.00 0.00 53 1004.4
20260906071050 21 188 0.0 1.6 0.00 0.00 0.00 53 1018.9
20260906070546 21 190 0.0 3.2 0.00 0.00 0.00 52 1018.8
20260906070522 21 190 0.0 3.2 0.00 0.00 0.00 52 1004.3
20260906070124 21 190 0.0 3.2 0.00 0.00 0.00 52 1004.3
20260906070042 21 190 0.0 3.2 0.00 0.00 0.00 51 1018.8
20260906065559 21 190 0.0 1.6 0.00 0.00 0.00 51 1004.3
20260906065536 21 190 0.0 1.6 0.00 0.00 0.00 51 1018.7
20260906065119 21 190 0.0 0.0 0.00 0.00 0.00 50 1004.2
20260906065030 22 190 0.0 0.0 0.00 0.00 0.00 50 1018.6
20260906064554 22 190 0.0 0.0 0.00 0.00 0.00 49 1018.7
20260906064511 22 190 0.0 0.0 0.00 0.00 0.00 49 1004.3
20260906064116 22 190 0.0 0.0 0.00 0.00 0.00 48 1004.3
20260906064050 22 190 0.0 0.0 0.00 0.00 0.00 48 1018.7
20260906063639 22 190 0.0 0.0 0.00 0.00 0.00 48 1004.5
20260906063545 22 190 0.0 0.0 0.00 0.00 0.00 48 1018.9
20260906063107 22 190 0.0 4.8 0.00 0.00 0.00 47 1004.5
20260906063037 22 190 0.0 4.8 0.00 0.00 0.00 47 1019.0
20260906062629 22 190 1.6 3.2 0.00 0.00 0.00 47 1004.6
20260906062530 22 175 1.6 3.2 0.00 0.00 0.00 46 1019.0
20260906062110 22 120 0.0 1.6 0.00 0.00 0.00 46 1004.8
20260906062027 23 120 0.0 1.6 0.00 0.00 0.00 46 1019.1
20260906061629 22 120 0.0 1.6 0.00 0.00 0.00 45 1004.7
20260906061551 23 120 0.0 1.6 0.00 0.00 0.00 45 1019.1
20260906061044 23 120 0.0 1.6 0.00 0.00 0.00 45 1019.3
20260906061011 23 120 0.0 1.6 0.00 0.00 0.00 45 1004.9
20260906060613 23 120 0.0 1.6 0.00 0.00 0.00 45 1019.5
20260906060526 23 120 0.0 3.2 0.00 0.00 0.00 45 1005.1
20260906060131 23 120 0.0 3.2 0.00 0.00 0.00 44 1005.1
20260906060047 23 120 0.0 3.2 0.00 0.00 0.00 44 1019.5
20260906055543 23 120 0.0 3.2 0.00 0.00 0.00 43 1019.5
20260906055520 23 120 0.0 3.2 0.00 0.00 0.00 44 1005.1
20260906055126 23 120 1.6 3.2 0.00 0.00 0.00 43 1005.1
20260906055037 23 120 1.6 3.2 0.00 0.00 0.00 43 1019.6
20260906054657 23 351 0.0 1.6 0.00 0.00 0.00 43 1005.1
20260906054559 23 351 0.0 1.6 0.00 0.00 0.00 43 1019.4
20260906054105 23 351 0.0 1.6 0.00 0.00 0.00 43 1005.1
20260906054035 23 351 0.0 1.6 0.00 0.00 0.00 43 1019.4
20260906053639 23 351 0.0 1.6 0.00 0.00 0.00 42 1005.1
20260906053555 23 351 0.0 1.6 0.00 0.00 0.00 42 1019.6
20260906053103 24 351 0.0 3.2 0.00 0.00 0.00 42 1019.5
20260906053001 23 351 0.0 3.2 0.00 0.00 0.00 42 1005.1
20260906052613 23 351 0.0 3.2 0.00 0.00 0.00 41 1005.1
20260906052536 24 351 1.6 3.2 0.00 0.00 0.00 41 1019.5
20260906052050 23 11 0.0 3.2 0.00 0.00 0.00 41 1005.1
20260906052032 24 11 0.0 3.2 0.00 0.00 0.00 41 1019.5
20260906051617 23 11 0.0 3.2 0.00 0.00 0.00 40 1005.0
20260906051528 24 11 1.6 3.2 0.00 0.00 0.00 40 1019.4
20260906051053 24 274 0.0 3.2 0.00 0.00 0.00 41 1019.5
20260906051018 23 261 0.0 3.2 0.00 0.00 0.00 41 1005.1
20260906050621 23 261 0.0 3.2 0.00 0.00 0.00 41 1005.1
20260906050547 24 261 1.6 3.2 0.00 0.00 0.00 41 1019.6
20260906050043 24 217 0.0 1.6 0.00 0.00 0.00 40 1019.6
20260906050018 24 217 0.0 1.6 0.00 0.00 0.00 40 1005.1
20260906045622 24 136 0.0 0.0 0.00 0.00 0.00 40 1005.2
20260906045537 25 136 0.0 1.6 0.00 0.00 0.00 40 1019.7
20260906045153 25 136 0.0 3.2 0.00 0.00 0.00 39 1005.2
20260906045055 25 136 0.0 3.2 0.00 0.00 0.00 38 1019.7
20260906044605 25 136 0.0 3.2 0.00 0.00 0.00 38 1005.2
20260906044531 25 136 1.6 3.2 0.00 0.00 0.00 38 1019.7
20260906044028 25 163 0.0 0.0 0.00 0.00 0.00 37 1019.6
20260906044003 25 163 0.0 0.0 0.00 0.00 0.00 37 1005.1
20260906043610 25 163 0.0 0.0 0.00 0.00 0.00 36 1005.2
20260906043554 25 163 0.0 0.0 0.00 0.00 0.00 36 1019.7
20260906043118 25 163 0.0 3.2 0.00 0.00 0.00 36 1005.2
20260906043029 25 163 0.0 3.2 0.00 0.00 0.00 36 1019.7
20260906042554 25 163 0.0 4.8 0.00 0.00 0.00 35 1019.6
20260906042509 25 163 0.0 8.0 0.00 0.00 0.00 35 1005.2
20260906042123 25 169 1.6 8.0 0.00 0.00 0.00 35 1005.0
20260906042029 25 169 1.6 8.0 0.00 0.00 0.00 36 1019.5
20260906041635 25 154 3.2 8.0 0.00 0.00 0.00 36 1005.1
20260906041552 25 139 3.2 8.0 0.00 0.00 0.00 36 1019.5
20260906041105 24 184 4.8 8.0 0.00 0.00 0.00 38 1005.0
20260906041042 25 187 4.8 8.0 0.00 0.00 0.00 38 1019.4
20260906040630 24 172 3.2 9.7 0.00 0.00 0.00 38 1004.8
20260906040539 24 148 3.2 6.4 0.00 0.00 0.00 38 1019.3
20260906040044 24 34 1.6 6.4 0.00 0.00 0.00 38 1018.8
20260906040016 24 34 0.0 8.0 0.00 0.00 0.00 38 1004.2
20260906035627 23 34 1.6 8.0 0.00 0.00 0.00 39 1004.0
20260906035552 24 34 3.2 8.0 0.00 0.00 0.00 39 1018.5
20260906035139 23 30 3.2 8.0 0.00 0.00 0.00 39 1003.9
20260906035047 23 21 3.2 8.0 0.00 0.00 0.00 39 1018.4
20260906034607 23 29 0.0 3.2 0.00 0.00 0.00 40 1003.7
20260906034542 23 29 1.6 3.2 0.00 0.00 0.00 40 1018.3
20260906034040 23 29 0.0 3.2 0.00 0.00 0.00 41 1018.4
20260906034002 23 29 0.0 3.2 0.00 0.00 0.00 41 1003.8
20260906033609 23 29 0.0 1.6 0.00 0.00 0.00 41 1003.7
20260906033536 24 29 1.6 1.6 0.00 0.00 0.00 41 1018.4
20260906033048 23 29 0.0 0.0 0.00 0.00 0.00 40 1003.8
20260906033029 24 29 0.0 0.0 0.00 0.00 0.00 40 1018.4
20260906032615 24 29 0.0 0.0 0.00 0.00 0.00 39 1003.8
20260906032553 24 29 0.0 0.0 0.00 0.00 0.00 38 1018.4
20260906032143 24 29 0.0 0.0 0.00 0.00 0.00 39 1003.7
20260906032049 24 29 0.0 0.0 0.00 0.00 0.00 39 1018.4
20260906031615 25 29 0.0 0.0 0.00 0.00 0.00 38 1018.4
20260906031503 24 29 0.0 0.0 0.00 0.00 0.00 38 1003.7
20260906031114 24 29 0.0 1.6 0.00 0.00 0.00 38 1003.6
20260906031050 25 29 0.0 1.6 0.00 0.00 0.00 38 1018.3
20260906030546 25 29 0.0 1.6 0.00 0.00 0.00 37 1018.1
20260906030514 25 29 0.0 1.6 0.00 0.00 0.00 37 1003.4
20260906030114 25 29 0.0 1.6 0.00 0.00 0.00 38 1018.0
20260906030025 25 29 0.0 1.6 0.00 0.00 0.00 38 1003.2
20260906025631 25 29 0.0 0.0 0.00 0.00 0.00 37 1003.1
20260906025550 25 29 0.0 0.0 0.00 0.00 0.00 37 1017.9
20260906025053 25 29 0.0 1.6 0.00 0.00 0.00 37 1017.9
20260906025005 25 29 0.0 1.6 0.00 0.00 0.00 37 1003.1
20260906024615 25 29 0.0 1.6 0.00 0.00 0.00 37 1002.9
20260906024547 25 29 0.0 1.6 0.00 0.00 0.00 37 1017.7
20260906024041 26 29 0.0 1.6 0.00 0.00 0.00 36 1017.7
20260906024005 25 29 0.0 0.0 0.00 0.00 0.00 36 1002.9
20260906023613 26 29 0.0 0.0 0.00 0.00 0.00 35 1002.9
20260906023537 26 29 0.0 0.0 0.00 0.00 0.00 35 1017.7
20260906023145 26 29 0.0 0.0 0.00 0.00 0.00 34 1002.9
20260906023058 26 29 0.0 0.0 0.00 0.00 0.00 34 1017.7
20260906022557 26 29 0.0 0.0 0.00 0.00 0.00 35 1002.9
20260906022533 26 29 0.0 0.0 0.00 0.00 0.00 35 1017.7
20260906022129 26 29 0.0 0.0 0.00 0.00 0.00 34 1003.0
20260906022102 27 29 0.0 0.0 0.00 0.00 0.00 33 1017.7
20260906021646 27 29 0.0 0.0 0.00 0.00 0.00 32 1002.9
20260906021609 27 29 0.0 1.6 0.00 0.00 0.00 32 1017.6
20260906021103 27 29 0.0 3.2 0.00 0.00 0.00 31 1002.8
20260906021046 27 29 0.0 3.2 0.00 0.00 0.00 31 1017.5
20260906020637 27 29 0.0 3.2 0.00 0.00 0.00 31 1002.7
20260906020616 27 29 0.0 3.2 0.00 0.00 0.00 31 1017.5
20260906020146 27 29 0.0 4.8 0.00 0.00 0.00 30 1002.5
20260906020049 28 29 0.0 8.0 0.00 0.00 0.00 31 1017.4
20260906015554 28 29 0.0 8.0 0.00 0.00 0.00 30 1017.3
20260906015527 27 29 0.0 8.0 0.00 0.00 0.00 30 1002.5
20260906015128 28 40 1.6 8.0 0.00 0.00 0.00 29 1002.4
20260906015031 28 40 3.2 8.0 0.00 0.00 0.00 29 1017.3
20260906014616 28 38 1.6 6.4 0.00 0.00 0.00 29 1017.2
20260906014514 28 38 3.2 6.4 0.00 0.00 0.00 29 1002.4
20260906014116 28 35 1.6 9.7 0.00 0.00 0.00 29 1002.3
20260906014050 28 35 3.2 9.7 0.00 0.00 0.00 29 1017.1
20260906013546 28 34 4.8 9.7 0.00 0.00 0.00 29 1016.9
20260906013517 28 40 3.2 8.0 0.00 0.00 0.00 29 1002.1
20260906013055 28 38 3.2 6.4 0.00 0.00 0.00 29 1016.9
20260906013039 28 37 3.2 6.4 0.00 0.00 0.00 29 1002.1
20260906012639 28 32 1.6 4.8 0.00 0.00 0.00 30 1002.1
20260906012551 28 32 1.6 4.8 0.00 0.00 0.00 30 1016.9
20260906012054 28 344 1.6 3.2 0.00 0.00 0.00 30 1016.8
20260906012011 28 35 0.0 4.8 0.00 0.00 0.00 30 1002.0
20260906011621 28 35 1.6 6.4 0.00 0.00 0.00 30 1002.0
20260906011552 28 35 1.6 6.4 0.00 0.00 0.00 31 1016.8
20260906011048 28 35 1.6 6.4 0.00 0.00 0.00 30 1016.7
20260906011018 28 35 1.6 6.4 0.00 0.00 0.00 30 1001.9
20260906010624 28 30 0.0 0.0 0.00 0.00 0.00 32 1001.9
20260906010542 28 30 0.0 0.0 0.00 0.00 0.00 33 1016.8
20260906010055 28 30 0.0 0.0 0.00 0.00 0.00 30 1001.9
20260906010037 28 30 0.0 0.0 0.00 0.00 0.00 30 1016.8
20260906005622 28 30 0.0 0.0 0.00 0.00 0.00 32 1002.0
20260906005528 29 30 0.0 0.0 0.00 0.00 0.00 31 1016.8
20260906005054 29 30 0.0 0.0 0.00 0.00 0.00 30 1016.8
20260906005026 29 30 0.0 0.0 0.00 0.00 0.00 30 1002.0
20260906004632 29 30 0.0 0.0 0.00 0.00 0.00 30 1002.0
20260906004530 30 30 0.0 0.0 0.00 0.00 0.00 30 1016.8
20260906004053 30 30 0.0 0.0 0.00 0.00 0.00 30 1016.9
20260906004003 30 30 0.0 0.0 0.00 0.00 0.00 30 1002.1
20260906003614 30 30 0.0 0.0 0.00 0.00 0.00 30 1002.0
20260906003526 30 30 0.0 0.0 0.00 0.00 0.00 30 1016.8
20260906003123 30 30 0.0 0.0 0.00 0.00 0.00 28 1002.0
20260906003050 30 30 0.0 0.0 0.00 0.00 0.00 28 1016.8
20260906002603 30 30 0.0 0.0 0.00 0.00 0.00 28 1002.0
20260906002546 31 30 0.0 0.0 0.00 0.00 0.00 28 1016.8
20260906002127 30 30 0.0 1.6 0.00 0.00 0.00 27 1001.9
20260906002042 31 30 0.0 1.6 0.00 0.00 0.00 26 1016.8
20260906001600 31 30 0.0 1.6 0.00 0.00 0.00 26 1001.9
20260906001538 31 30 0.0 1.6 0.00 0.00 0.00 26 1016.7
20260906001135 31 30 0.0 4.8 0.00 0.00 0.00 26 1001.9
20260906001059 31 30 0.0 4.8 0.00 0.00 0.00 25 1016.7
20260906000550 31 30 1.6 9.7 0.00 0.00 0.00 25 1001.9
20260906000533 31 34 3.2 9.7 0.00 0.00 0.00 25 1016.8
20260906000123 31 33 1.6 9.7 0.00 0.00 0.00 25 1001.7
20260905235637 31 31 0.0 4.8 0.00 0.00 0.00 24 1001.8
20260905235540 32 355 1.6 4.8 0.00 0.00 0.00 25 1016.6
20260905235109 31 30 0.0 4.8 0.00 0.00 0.00 24 1001.7
20260905235037 32 30 1.6 4.8 0.00 0.00 0.00 24 1016.6
20260905234548 31 30 0.0 6.4 0.00 0.00 0.00 25 1001.7
20260905234531 32 30 0.0 6.4 0.00 0.00 0.00 25 1016.6
20260905234115 31 36 0.0 6.4 0.00 0.00 0.00 25 1001.7
20260905234035 32 40 1.6 6.4 0.00 0.00 0.00 24 1016.6
20260905233625 32 26 1.6 4.8 0.00 0.00 0.00 24 1001.7
20260905233531 32 26 1.6 4.8 0.00 0.00 0.00 24 1016.6
20260905233153 32 314 0.0 4.8 0.00 0.00 0.00 23 1001.5
20260905233056 32 314 1.6 4.8 0.00 0.00 0.00 23 1016.5
20260905232604 32 42 1.6 4.8 0.00 0.00 0.00 24 1001.6
20260905232533 32 42 1.6 4.8 0.00 0.00 0.00 23 1016.4
20260905232053 32 317 1.6 3.2 0.00 0.00 0.00 23 1016.6
20260905232001 32 317 1.6 4.8 0.00 0.00 0.00 23 1001.6
20260905231611 32 23 0.0 4.8 0.00 0.00 0.00 23 1001.6
20260905231549 32 23 1.6 4.8 0.00 0.00 0.00 23 1016.5
20260905231045 32 310 1.6 4.8 0.00 0.00 0.00 22 1016.6
20260905231003 32 279 0.0 4.8 0.00 0.00 0.00 22 1001.5
20260905230615 32 295 0.0 6.4 0.00 0.00 0.00 22 1001.6
20260905230540 32 311 1.6 6.4 0.00 0.00 0.00 22 1016.6
20260905230036 32 97 1.6 9.7 0.00 0.00 0.00 22 1016.6
20260905230009 32 97 0.0 9.7 0.00 0.00 0.00 21 1001.5
20260905225612 32 36 1.6 9.7 0.00 0.00 0.00 21 1001.5
20260905225533 33 29 3.2 9.7 0.00 0.00 0.00 22 1016.5
20260905225028 33 30 3.2 6.4 0.00 0.00 0.00 21 1016.5
20260905225003 33 30 1.6 4.8 0.00 0.00 0.00 21 1001.4
20260905224616 33 68 0.0 6.4 0.00 0.00 0.00 21 1001.4
20260905224552 33 68 1.6 8.0 0.00 0.00 0.00 21 1016.5
20260905224125 33 68 1.6 8.0 0.00 0.00 0.00 21 1001.4
20260905224040 33 68 3.2 8.0 0.00 0.00 0.00 21 1016.5
20260905223535 33 26 3.2 6.4 0.00 0.00 0.00 22 1016.6
20260905223512 33 42 1.6 4.8 0.00 0.00 0.00 22 1001.5
20260905223117 33 32 3.2 8.0 0.00 0.00 0.00 22 1001.5
20260905223100 33 32 3.2 8.0 0.00 0.00 0.00 22 1016.6
20260905222629 33 202 1.6 8.0 0.00 0.00 0.00 20 1001.5
20260905222536 33 308 1.6 8.0 0.00 0.00 0.00 21 1016.6